Martedi 22 Ottobre 2019

 
Calliano - Provincia di Trento

189 mslm

45° 55' 59'' N 11° 05' 53'' E

Pagine realizzate e gestite da Andrea Pernecher

 

Tutti gli orari sono riferiti all'ora solare (GMT+1h)

>stazione meteo :: i dati del giorno  

 Dati relativi a MARTEDI 22 OTTOBRE 2019 ORE 12.29
 

 TEMPERATURA

20,7 °C

 

 ESCURS. TERMICA 5,9 °C

 

 

 TEMPERATURA MIN

14,2 °C

alle 06:57

 

 TEMPERATURA MAX 20,1 °C

alle 12:00

 

 TEMP.MEDIA INTEG.

15.8 °C

       
 

 PRESSIONE

990 mbar

 

 UMIDITA' 50 %

 

 PIOGGIA

0,0 mm

 

 INTENS. PIOGGIA 0,0 mm/h

 

 VENTO MAX

5,5 m/s

N

 

 DEW POINT

9,9 °C

 
Immagini WebCam
ORE 8.00 ORE 12.00 ORE 16.00

> visualizza webcam 24 ore

 

 Dettaglio rilevazioni di Martedi 22 Ottobre 2019 (ogni 15 minuti)
Ora Temperatura °C Umidità R. % Pressione mbar Vento m/s Dew Point °C Pioggia totale caduta mm Intensità della pioggia mm/h
  TEMPERATURA UMIDITA' PRESSIONE VENTO DEW POINT PIOGGIA INTENS. PIOGGIA
12:15 20,4 51 990 2,4 NE 9,9 0,0 0,0
12:00 20,1 53 990 2,4 NE 10,2 0,0 0,0
11:45 19,8 54 990 2,4 NE 10,2 0,0 0,0
11:30 19,5 57 990 2,4 NE 10,8 0,0 0,0
11:15 19,4 58 990 2,4 NE 10,9 0,0 0,0
11:00 19,1 59 990 2,4 NE 10,9 0,0 0,0
10:45 18,8 63 990 2,4 NE 11,6 0,0 0,0
10:30 18,3 64 990 2,4 NE 11,4 0,0 0,0
10:15 17,8 66 990 2,4 NE 11,4 0,0 0,0
10:00 17,6 68 990 2,4 NE 11,6 0,0 0,0
09:45 17,2 69 990 2,4 NE 11,5 0,0 0,0
09:30 16,8 72 990 2,4 NE 11,7 0,0 0,0
09:15 16,4 75 990 1,8 NNE 12,0 0,0 0,0
09:00 15,9 87 990 2,8 NNE 13,7 0,0 0,0
08:45 15,5 89 990 2,8 NNE 13,7 0,0 0,0
08:30 14,9 88 990 1,4 N 12,9 0,0 0,0
08:15 14,5 88 990 1,2 NNE 12,5 0,0 0,0
08:00 14,3 87 990 1,6 NNE 12,2 0,0 0,0
07:45 14,2 87 990 1,2 N 12,1 0,0 0,0
07:30 14,3 87 990 2,2 N 12,2 0,0 0,0
07:15 14,4 87 990 1,4 NNW 12,3 0,0 0,0
07:00 14,2 86 990 1,2 NE 11,9 0,0 0,0
06:45 14,4 86 990 1,6 N 12,1 0,0 0,0
06:30 14,4 86 990 1,4 NNE 12,1 0,0 0,0
06:15 14,6 85 990 1,4 N 12,1 0,0 0,0
06:00 14,8 85 990 2,6 NNE 12,3 0,0 0,0
05:45 15,0 85 990 2,6 NE 12,5 0,0 0,0
05:30 14,9 85 990 2,2 ENE 12,4 0,0 0,0
05:15 15,0 84 990 1,8 NE 12,3 0,0 0,0
05:00 15,4 84 990 2,4 N 12,7 0,0 0,0
04:45 15,4 85 990 2,4 NNE 12,9 0,0 0,0
04:30 15,4 84 990 2,2 E 12,7 0,0 0,0
04:15 15,4 84 990 1,8 NE 12,7 0,0 0,0
04:00 15,6 84 990 1,6 NNW 12,9 0,0 0,0
03:45 15,6 83 990 1,8 ENE 12,7 0,0 0,0
03:30 15,8 83 990 2,6 NE 12,9 0,0 0,0
03:15 15,9 83 990 1,2 ENE 13,0 0,0 0,0
03:00 16,0 83 990 1,4 NNE 13,1 0,0 0,0
02:45 16,1 83 990 1,8 N 13,2 0,0 0,0
02:30 16,1 84 990 2,6 NE 13,4 0,0 0,0
02:15 16,1 83 990 3,9 E 13,2 0,0 0,0
02:00 16,1 83 990 2,4 NE 13,2 0,0 0,0
01:45 16,2 83 990 3,6 ENE 13,3 0,0 0,0
01:30 16,2 87 990 2,4 NNE 14,0 0,0 0,0
01:15 16,1 88 990 2,2 ENE 14,1 0,0 0,0
01:00 16,0 89 990 3,4 NE 14,2 0,0 0,0
00:45 15,9 89 990 3,7 ENE 14,1 0,0 0,0
00:30 15,9 90 990 2,8 ENE 14,3 0,0 0,0
00:15 15,9 90 990 1,4 NE 14,3 0,0 0,0
00:00 15,9 91 990 3,0 NE 14,4 0,0 0,0

 

 

Stampa paginastampa    torna in cima

 2002-2019 osservatoriocalliano.it